Weather History for KREO - April, 2014

Change the Weather History Date:

Thursday, April 3, 2014

  Actual Average Record
Temperature  
Mean Temperature 39 °F 43 °F  
Max Temperature 55 °F 58 °F 79 °F (1987)
Min Temperature 22 °F 28 °F 16 °F (2008)
Degree Days  
Heating Degree Days 26 22  
Month to date heating degree days 82 66  
Since 1 July heating degree days 5177 5581  
Cooling Degree Days 0 0  
Month to date cooling degree days 0 0  
Year to date cooling degree days 0 0  
Moisture  
Dew Point 21 °F    
Average Humidity 51    
Maximum Humidity 88    
Minimum Humidity 13    
Precipitation  
Precipitation 0.00 in 0.03 in 0.38 in (1988)
Month to date precipitation 0.23 0.08  
Year to date precipitation 1.36 2.47  
Sea Level Pressure  
Sea Level Pressure 30.03 in    
Wind  
Wind Speed 9 mph (SSE)    
Max Wind Speed 17 mph    
Max Gust Speed 20 mph    
T = Trace of Precipitation, MM = Missing Value Source: NWS Daily Summary

Daily Weather History Graph

Daily Weather History Graph

Search for Another Location

Airport or City:

Trip Planner

Search our weather history database for the weather conditions in past years. The results will help you decide how hot, cold, wet, or windy it might be!

Date:

Astronomy

Apr. 03, 2014 Rise Set
Actual Time 6:30 AM PDT 7:19 PM PDT
Civil Twilight 6:01 AM PDT 7:48 PM PDT
Nautical Twilight 5:27 AM PDT 8:22 PM PDT
Astronomical Twilight 4:52 AM PDT 8:57 PM PDT
Moon 8:58 AM PDT (4/3) 11:48 PM PDT (4/3)
Length of Visible Light 13h 46m
Length of Day
12h 49m
Waxing Crescent, 18% of the Moon is Illuminated
Apr 3
Waxing Crescent
Apr 7
First Quarter
Apr 15
Full
Apr 22
Last Quarter
Apr 28
New

Hourly Weather History & Observations

Time (PDT) Temp. Windchill Dew Point Humidity Pressure Visibility Wind Dir Wind Speed Gust Speed Precip Events Conditions
12:52 AM 28.0 °F 22.8 °F 21.9 °F 78% 30.05 in - South 4.6 mph - N/A   Unknown
1:52 AM 30.0 °F 21.1 °F 24.1 °F 79% 30.04 in - SSE 10.4 mph - N/A   Unknown
2:52 AM 28.9 °F 21.9 °F 23.0 °F 78% 30.04 in - South 6.9 mph - N/A   Unknown
3:52 AM 25.0 °F 18.1 °F 21.0 °F 85% 30.06 in - WSW 5.8 mph - N/A   Unknown
4:52 AM 23.0 °F 15.8 °F 19.0 °F 85% 30.07 in - SSW 5.8 mph - N/A   Unknown
5:52 AM 24.1 °F 17.0 °F 19.0 °F 81% 30.08 in - South 5.8 mph - N/A   Unknown
6:52 AM 25.0 °F 16.3 °F 21.0 °F 85% 30.10 in - SSE 8.1 mph - N/A   Unknown
7:52 AM 35.1 °F 25.9 °F 26.1 °F 70% 30.09 in - SE 13.8 mph - N/A   Unknown
8:52 AM 39.0 °F 31.0 °F 26.1 °F 60% 30.09 in - SE 13.8 mph - N/A   Unknown
9:52 AM 44.1 °F 37.1 °F 26.1 °F 49% 30.09 in - SE 15.0 mph - N/A   Unknown
10:52 AM 46.9 °F - 25.0 °F 42% 30.08 in - SE 12.7 mph - N/A   Unknown
11:52 AM 48.9 °F - 23.0 °F 36% 30.08 in - South 9.2 mph - N/A   Unknown
12:52 PM 50.0 °F - 19.9 °F 31% 30.06 in - SSE 5.8 mph 17.3 mph N/A   Unknown
1:52 PM 51.1 °F - 21.0 °F 31% 30.04 in - Variable 4.6 mph - N/A   Unknown
2:52 PM 54.0 °F - 21.0 °F 28% 30.01 in - East 3.5 mph - N/A   Unknown
3:52 PM 54.0 °F - 12.0 °F 19% 30.00 in - SSW 11.5 mph 18.4 mph N/A   Unknown
4:52 PM 54.0 °F - 9.0 °F 17% 29.99 in - South 13.8 mph 19.6 mph N/A   Unknown
5:52 PM 53.1 °F - 5.0 °F 14% 29.98 in - South 10.4 mph - N/A   Unknown
6:52 PM 50.0 °F - 17.1 °F 27% 29.98 in - South 10.4 mph - N/A   Unknown
7:52 PM 44.1 °F 39.5 °F 23.0 °F 43% 29.96 in - SSE 8.1 mph - N/A   Unknown
8:52 PM 42.1 °F 36.6 °F 28.0 °F 58% 29.96 in - SE 9.2 mph - N/A   Unknown
9:52 PM 42.1 °F 36.1 °F 28.9 °F 60% 29.94 in - SE 10.4 mph - N/A   Unknown
10:52 PM 44.1 °F 38.6 °F 26.1 °F 49% 29.94 in - SSW 10.4 mph - N/A   Unknown
11:52 PM 42.1 °F 37.1 °F 27.0 °F 55% 29.95 in - SSW 8.1 mph - N/A   Unknown